Thedford, NE

7:59 AM CDT on September 24, 2017 (GMT -0500)
Thedford

Weather History for KTIF - August, 2014

Change the Weather History Date:

Sunday, August 31, 2014

  Actual Average (KANW) Record (KANW)
Temperature  
Mean Temperature 66 °F -  
Max Temperature 75 °F 83 °F 93 °F (2012)
Min Temperature 57 °F 57 °F 51 °F (2001)
Cooling Degree Days 2    
Growing Degree Days 16 (Base 50)    
Moisture  
Dew Point 57 °F    
Average Humidity 72    
Maximum Humidity 93    
Minimum Humidity 49    
Precipitation  
Precipitation 0.08 in - - ()
Sea Level Pressure  
Sea Level Pressure 29.79 in    
Wind  
Wind Speed 7 mph (West)    
Max Wind Speed 33 mph    
Max Gust Speed 47 mph    
Visibility 10 miles    
Events Thunderstorm    
Averages and records for this station are not official NWS values.
T = Trace of Precipitation, MM = Missing Value Source: NWS Daily Summary

Daily Weather History Graph

Daily Weather History Graph

Search for Another Location

Airport or City:

Trip Planner

Search our weather history database for the weather conditions in past years. The results will help you decide how hot, cold, wet, or windy it might be!

Date:

Astronomy

Aug. 31, 2014 Rise Set
Actual Time 7:06 AM CDT 8:17 PM CDT
Civil Twilight 6:38 AM CDT 8:46 PM CDT
Nautical Twilight 6:03 AM CDT 9:20 PM CDT
Astronomical Twilight 5:27 AM CDT 9:56 PM CDT
Moon 1:01 PM CDT (8/31) 11:27 PM CDT (8/31)
Length of Visible Light 14h 07m
Length of Day
13h 10m
Waxing Crescent, 32% of the Moon is Illuminated
Aug 31
Waxing Crescent
Sep 2
First Quarter
Sep 8
Full
Sep 15
Last Quarter
Sep 24
New

Hourly Weather History & Observations

Time (CDT) Temp. Dew Point Humidity Pressure Visibility Wind Dir Wind Speed Gust Speed Precip Events Conditions
12:15 AM 75.9 °F 59.7 °F 57% 29.83 in 10.0 mi SSW 9.2 mph - N/A   Scattered Clouds
12:35 AM 75.2 °F 59.0 °F 57% 29.83 in 10.0 mi SW 8.1 mph - N/A   Scattered Clouds
12:55 AM 74.7 °F 58.5 °F 57% 29.83 in 10.0 mi SW 8.1 mph - N/A   Scattered Clouds
1:15 AM 75.9 °F 55.8 °F 49% 29.83 in 10.0 mi WSW 9.2 mph - N/A   Scattered Clouds
1:35 AM 71.1 °F 59.2 °F 66% 29.83 in 10.0 mi SSW 9.2 mph - N/A   Scattered Clouds
1:55 AM 70.0 °F 59.0 °F 68% 29.85 in 10.0 mi WSW 11.5 mph - N/A   Mostly Cloudy
2:15 AM 72.7 °F 57.0 °F 58% 29.84 in 10.0 mi West 11.5 mph - N/A Thunderstorm Thunderstorm
2:35 AM 71.8 °F 56.5 °F 58% 29.79 in 10.0 mi Calm Calm - N/A   Scattered Clouds
2:55 AM 69.1 °F 57.9 °F 68% 29.76 in 10.0 mi SE 8.1 mph - N/A   Mostly Cloudy
3:15 AM 69.3 °F 57.6 °F 66% 29.75 in 10.0 mi SE 3.5 mph - N/A   Scattered Clouds
3:35 AM 69.1 °F 57.4 °F 66% 29.77 in 10.0 mi Calm Calm - N/A   Clear
3:55 AM 66.9 °F 58.3 °F 74% 29.76 in 10.0 mi Calm Calm - N/A   Clear
4:15 AM 66.9 °F 56.8 °F 70% 29.75 in 10.0 mi Calm Calm - N/A   Clear
4:35 AM 64.4 °F 56.5 °F 75% 29.75 in 10.0 mi Calm Calm - N/A   Clear
4:55 AM 62.2 °F 56.3 °F 81% 29.76 in 10.0 mi Calm Calm - N/A   Clear
5:35 AM 64.9 °F 57.6 °F 77% 29.75 in 10.0 mi WSW 4.6 mph - N/A   Clear
5:55 AM 61.2 °F 56.3 °F 84% 29.76 in 10.0 mi WNW 6.9 mph - N/A   Clear
6:15 AM 60.4 °F 55.9 °F 85% 29.77 in 10.0 mi West 5.8 mph - N/A   Clear
6:35 AM 60.4 °F 56.3 °F 86% 29.78 in 10.0 mi WSW 3.5 mph - N/A   Clear
6:55 AM 61.2 °F 55.9 °F 83% 29.77 in 10.0 mi SW 4.6 mph - N/A   Clear
7:15 AM 59.9 °F 55.9 °F 87% 29.78 in 10.0 mi SW 6.9 mph - N/A   Clear
7:35 AM 59.0 °F 55.4 °F 88% 29.78 in 10.0 mi Calm Calm - N/A   Clear
7:55 AM 59.4 °F 56.3 °F 90% 29.78 in 10.0 mi Calm Calm - N/A   Clear
8:15 AM 62.8 °F 57.4 °F 82% 29.79 in 10.0 mi West 4.6 mph - N/A   Clear
8:35 AM 63.5 °F 57.4 °F 80% 29.79 in 10.0 mi West 3.5 mph - N/A   Clear
8:55 AM 63.5 °F 58.6 °F 84% 29.78 in 10.0 mi Calm Calm - N/A   Clear
9:15 AM 65.8 °F 59.7 °F 81% 29.79 in 10.0 mi NNW 3.5 mph - N/A   Clear
9:35 AM 66.9 °F 58.1 °F 73% 29.81 in 10.0 mi WNW 9.2 mph - N/A   Clear
9:55 AM 68.0 °F 58.1 °F 71% 29.79 in 10.0 mi NW 5.8 mph - N/A   Clear
10:15 AM 69.4 °F 58.5 °F 68% 29.80 in 10.0 mi NW 3.5 mph - N/A   Scattered Clouds
10:35 AM 70.7 °F 59.0 °F 66% 29.83 in 10.0 mi Calm Calm - N/A   Scattered Clouds
11:15 AM 70.7 °F 57.2 °F 62% 29.85 in 10.0 mi NW 6.9 mph - N/A   Mostly Cloudy
12:15 PM 69.4 °F 57.0 °F 65% 29.89 in 10.0 mi NW 11.5 mph - N/A   Overcast
12:35 PM 67.3 °F 57.7 °F 71% 29.88 in 10.0 mi NW 11.5 mph - N/A   Mostly Cloudy
12:55 PM 64.9 °F 59.0 °F 81% 29.85 in 10.0 mi NW 15.0 mph 19.6 mph 0.01 in   Mostly Cloudy
1:15 PM 65.7 °F 58.8 °F 79% 29.82 in 10.0 mi NNW 11.5 mph - N/A   Mostly Cloudy
1:35 PM 65.3 °F 58.1 °F 77% 29.82 in 10.0 mi NNW 10.4 mph 17.3 mph N/A   Mostly Cloudy
1:55 PM 65.3 °F 58.3 °F 78% 29.84 in 10.0 mi Calm Calm - N/A   Overcast
2:15 PM 64.4 °F 58.5 °F 81% 29.87 in 10.0 mi WSW 10.4 mph - 0.01 in   Overcast
2:35 PM 63.9 °F 59.0 °F 84% 29.84 in 10.0 mi SSW 8.1 mph - 0.03 in   Overcast
2:55 PM 65.1 °F 60.3 °F 84% 29.81 in 10.0 mi Calm Calm - 0.03 in   Overcast
3:15 PM 65.1 °F 60.6 °F 85% 29.78 in 10.0 mi ESE 8.1 mph - N/A   Overcast
3:35 PM 64.8 °F 59.5 °F 83% 29.76 in 10.0 mi SSE 13.8 mph - N/A   Mostly Cloudy
3:55 PM 64.4 °F 59.9 °F 85% 29.76 in 10.0 mi SSE 8.1 mph - N/A   Clear
4:15 PM 65.8 °F 60.6 °F 83% 29.76 in 10.0 mi West 4.6 mph - N/A   Clear
4:35 PM 68.0 °F 60.6 °F 77% 29.75 in 10.0 mi WNW 3.5 mph - N/A   Clear
4:55 PM 70.7 °F 60.8 °F 71% 29.77 in 10.0 mi WSW 9.2 mph - N/A Thunderstorm Clear
5:15 PM 75.4 °F 59.5 °F 58% 29.77 in 10.0 mi West 15.0 mph 21.9 mph N/A   Clear
5:35 PM 75.6 °F 57.0 °F 52% 29.77 in 10.0 mi WSW 11.5 mph 18.4 mph N/A   Clear
5:55 PM 74.3 °F 57.2 °F 55% 29.78 in 10.0 mi SSW 13.8 mph 17.3 mph N/A   Mostly Cloudy
6:15 PM 72.0 °F 57.0 °F 59% 29.69 in 10.0 mi SSE 9.2 mph 25.3 mph N/A   Scattered Clouds
6:35 PM 75.9 °F 56.8 °F 51% 29.72 in 10.0 mi WNW 6.9 mph - N/A   Scattered Clouds
6:55 PM 75.9 °F 56.8 °F 51% 29.72 in 10.0 mi WNW 8.1 mph - N/A   Clear
7:15 PM 75.6 °F 55.0 °F 49% 29.71 in 10.0 mi West 11.5 mph - N/A   Clear
7:35 PM 74.1 °F 56.3 °F 54% 29.71 in 10.0 mi WSW 9.2 mph - N/A   Clear
7:55 PM 72.5 °F 54.3 °F 53% 29.73 in 10.0 mi WSW 11.5 mph - N/A   Clear
8:15 PM 70.3 °F 54.9 °F 58% 29.73 in 10.0 mi West 11.5 mph - N/A   Clear
8:35 PM 69.3 °F 54.7 °F 60% 29.75 in 10.0 mi WSW 10.4 mph - N/A   Clear
8:55 PM 67.8 °F 55.0 °F 64% 29.77 in 10.0 mi WNW 9.2 mph - N/A   Clear
9:15 PM 66.9 °F 55.2 °F 66% 29.85 in 10.0 mi WNW 33.4 mph 47.2 mph N/A Thunderstorm Mostly Cloudy
9:35 PM 59.7 °F 55.6 °F 86% 29.80 in 10.0 mi North 11.5 mph - 0.03 in   Overcast
9:55 PM 59.9 °F 56.8 °F 90% 29.77 in 10.0 mi North 10.4 mph 18.4 mph 0.04 in   Mostly Cloudy
10:15 PM 59.9 °F 56.8 °F 90% 29.79 in 10.0 mi NNW 10.4 mph 17.3 mph N/A   Clear
10:35 PM 59.0 °F 56.5 °F 91% 29.81 in 10.0 mi NW 11.5 mph 17.3 mph N/A   Clear
11:15 PM 58.1 °F 56.1 °F 93% 29.85 in 10.0 mi WNW 11.5 mph - N/A   Clear
11:35 PM 57.6 °F 55.6 °F 93% 29.83 in 10.0 mi NW 8.1 mph - N/A   Clear